Simultaneous Nadir Overpasses (SNOs) Predictions

Prediction of SNOs between METOP-B and TERRA Satellite Orbit:

Table of predicted SNOs for the next 14.0 days since TLE Epoch: 10/16/2023
Index Date (METOP-B) Time (METOP-B) Lat,Lon (METOP-B) SZA (METOP-B ) Date (TERRA) Time (TERRA) Lat,Lon (TERRA) SZA (TERRA ) Distance(km) Time Diff (sec)
1 10/18/2023 02:32:54 -80.18, -15.11 89.36 10/18/2023 02:34:08 -80.07, -14.72 89.41 14.28 74
2 10/18/2023 03:23:14 80.69, 158.84 91.65 10/18/2023 03:23:10 80.69, 158.77 91.64 1.21 4
3 10/20/2023 18:44:11 -80.65, 107.97 87.49 10/20/2023 18:44:20 -80.65, 108.02 87.48 0.91 9
4 10/20/2023 19:34:47 80.75, -83.20 92.74 10/20/2023 19:33:38 80.74, -83.38 92.69 3.25 69
5 10/23/2023 10:05:05 80.63, 57.43 93.41 10/23/2023 10:05:25 80.64, 57.58 93.44 2.92 20
6 10/23/2023 10:55:43 -80.70,-134.16 86.43 10/23/2023 10:54:46 -80.70,-134.09 86.44 1.42 57
7 10/26/2023 01:25:59 -80.64, 7.42 85.64 10/26/2023 01:26:32 -80.64, 7.26 85.65 3.04 33
8 10/26/2023 02:16:36 80.72, 175.86 94.53 10/26/2023 02:15:50 80.72, 175.78 94.51 1.41 46
9 10/28/2023 16:46:55 80.58, -43.68 95.13 10/28/2023 16:47:37 80.59, -43.53 95.16 2.86 42



Historial Predications of SNOs between METOP-B and TERRA
